map of VNX home
VNX - Airport
Location
City:  Vilankulo, Inhambane, Mozambique
Near (Alt.):Vilanculos
Name:Vilankulo Airport
Old (Alt.):Vilanculos Airport
ICAO:FQVL
IATA:VNX

Details
Type:Airport (Aerodrome, Airfield)
Use:Public/Civil
Latitude:2201'06"S (-22.018430)
Longitude:3518'48"E (35.313297)
Datum:WGS 1984
Elevation:46 ft (14 m)
Variation:15.50W (WMM2015v2 magnetic declination)
-0.10 annual change
Runways:2
Longest:4823 × 98 ft (1470 × 30 m), paved

Time
Time Zone:UTC+2
Local Time:

Weather
METAR:FQVL 041300Z 08008KT 030V120 9999 FEW020 30/25 Q1010
TAF:FQVL 041000Z 0412/0512 03010KT 9999 SCT020 TX31/0413Z TN24/0503Z
BECMG 0418/0420 10012KT FEW015
BECMG 0500/0502 16010KT
BECMG 0506/0508 08007KT

Related Locations
Nearby:
Farthest:ITO: 11759 mi / 18924 km
Hilo [Hilo Intl], Hawaii, HI, US

Find:

   beyond  
but within

Other Information
Maps:
NOTAMs:
Links:
Sources:

  
  • flag of Mozambique
  

Sectional Chart

Flight Planning
at skyvector.com

Satellite Image

Google Maps Satellite view

 

Copyright © 2004-2019 Karl L. Swartz. All rights reserved.
The Great Circle Mapper name and logo are trademarks of the Great Circle Mapper.
All other trademarks mentioned herein belong to their respective owners.
Please see credits for attibutions and further copyright information.

  Follow gcmap on Facebook Follow gcmap on Twitter GCmap on LinkedIn

hCard Microformat

Geo Microformat